| time (UTC) | temp F | wind direction | speed knots | gust knots | rain 1hr in | rain 24hr in | rain mn in | humidity % | barometer mb |
| 20260507224311 | 52 | 258 | 0.0 | 0.9 | 0.00 | 0.01 | 0.00 | 84 | 949.6 |
| 20260507223602 | 52 | 258 | 0.0 | 0.9 | 0.00 | 0.01 | 0.00 | 84 | 949.6 |
| 20260507223101 | 52 | 204 | 0.0 | 0.0 | 0.00 | 0.01 | 0.00 | 84 | 949.6 |
| 20260507222602 | 52 | 204 | 0.0 | 1.7 | 0.00 | 0.01 | 0.00 | 82 | 949.7 |
| 20260507222102 | 52 | 204 | 0.0 | 1.7 | 0.00 | 0.01 | 0.00 | 84 | 949.6 |
| 20260507221811 | 51 | 192 | 0.0 | 0.0 | 0.00 | 0.01 | 0.00 | 84 | 949.5 |
| 20260507221101 | 51 | 165 | 0.0 | 0.0 | 0.00 | 0.01 | 0.00 | 83 | 949.6 |
| 20260507220602 | 51 | 164 | 0.0 | 0.0 | 0.00 | 0.01 | 0.00 | 83 | 949.6 |
| 20260507215603 | 52 | 165 | 0.0 | 0.9 | 0.00 | 0.01 | 0.01 | 83 | 949.6 |
| 20260507215102 | 52 | 165 | 0.0 | 0.9 | 0.00 | 0.01 | 0.01 | 82 | 949.5 |
| 20260507214811 | 52 | 227 | 0.0 | 0.0 | 0.00 | 0.01 | 0.01 | 82 | 949.5 |
| 20260507214102 | 52 | 238 | 0.0 | 0.9 | 0.00 | 0.01 | 0.01 | 82 | 949.5 |
| 20260507213602 | 52 | 238 | 0.0 | 0.9 | 0.00 | 0.01 | 0.01 | 82 | 949.6 |
| 20260507213102 | 53 | 238 | 0.0 | 0.9 | 0.00 | 0.01 | 0.01 | 82 | 949.4 |
| 20260507212603 | 53 | 238 | 0.0 | 0.0 | 0.00 | 0.01 | 0.01 | 82 | 949.5 |
| 20260507212102 | 53 | 240 | 0.0 | 0.9 | 0.00 | 0.01 | 0.01 | 82 | 949.4 |
| 20260507211602 | 53 | 238 | 0.0 | 1.7 | 0.00 | 0.01 | 0.01 | 82 | 949.4 |
| 20260507211102 | 53 | 240 | 0.9 | 1.7 | 0.00 | 0.01 | 0.01 | 82 | 949.4 |
| 20260507210602 | 53 | 221 | 0.9 | 1.7 | 0.00 | 0.01 | 0.01 | 79 | 949.2 |
| 20260507205557 | 0 | 250 | 0.0 | 0.0 | 0.00 | 0.01 | 0.01 | 949.2 | |
| 20260507205057 | 54 | 250 | 0.0 | 2.6 | 0.00 | 0.01 | 0.01 | 79 | 949.1 |
| 20260507204557 | 54 | 279 | 1.7 | 3.5 | 0.00 | 0.01 | 0.01 | 79 | 949.1 |
| 20260507204056 | 54 | 210 | 0.9 | 3.5 | 0.00 | 0.01 | 0.01 | 79 | 949.0 |
| 20260507203557 | 54 | 235 | 0.9 | 2.6 | 0.00 | 0.01 | 0.01 | 79 | 948.9 |
| 20260507203057 | 54 | 223 | 0.9 | 2.6 | 0.00 | 0.01 | 0.01 | 79 | 948.9 |
| 20260507202557 | 55 | 251 | 0.0 | 1.7 | 0.00 | 0.01 | 0.01 | 78 | 948.9 |
| 20260507202057 | 55 | 257 | 0.9 | 0.9 | 0.00 | 0.01 | 0.01 | 77 | 948.8 |
| 20260507201556 | 55 | 259 | 0.9 | 0.9 | 0.00 | 0.01 | 0.01 | 77 | 948.8 |
| 20260507201054 | 55 | 120 | 0.0 | 0.9 | 0.00 | 0.01 | 0.01 | 77 | 948.8 |
| 20260507200739 | 55 | 186 | 0.0 | 0.0 | 0.00 | 0.01 | 0.01 | 78 | 948.8 |
| 20260507200056 | 56 | 219 | 0.0 | 0.9 | 0.00 | 0.01 | 0.01 | 77 | 948.7 |
| 20260507200032 | 56 | 219 | 0.0 | 0.9 | 0.00 | 0.01 | 0.01 | 76 | 948.8 |
| 20260507195531 | 56 | 219 | 0.0 | 0.9 | 0.00 | 0.01 | 0.01 | 75 | 948.7 |
| 20260507195056 | 57 | 220 | 0.0 | 0.9 | 0.00 | 0.01 | 0.01 | 75 | 948.7 |
| 20260507195031 | 57 | 220 | 0.0 | 0.9 | 0.00 | 0.01 | 0.01 | 75 | 948.6 |
| 20260507194556 | 57 | 220 | 0.0 | 0.9 | 0.00 | 0.01 | 0.01 | 75 | 948.7 |
| 20260507194531 | 57 | 220 | 0.0 | 2.6 | 0.00 | 0.01 | 0.01 | 75 | 948.6 |
| 20260507194055 | 57 | 220 | 0.0 | 2.6 | 0.00 | 0.01 | 0.01 | 73 | 948.6 |
| 20260507194032 | 57 | 220 | 0.0 | 2.6 | 0.00 | 0.01 | 0.01 | 73 | 948.5 |
| 20260507193739 | 57 | 220 | 0.9 | 2.6 | 0.00 | 0.01 | 0.01 | 73 | 948.5 |
| 20260507193031 | 58 | 159 | 0.0 | 3.5 | 0.00 | 0.01 | 0.01 | 73 | 948.4 |
| 20260507192740 | 58 | 327 | 0.9 | 3.5 | 0.00 | 0.01 | 0.01 | 73 | 948.5 |
| 20260507192055 | 58 | 106 | 0.0 | 3.5 | 0.00 | 0.01 | 0.01 | 72 | 948.5 |
| 20260507192032 | 58 | 106 | 0.0 | 3.5 | 0.00 | 0.01 | 0.01 | 71 | 948.5 |
| 20260507191555 | 59 | 76 | 0.0 | 3.5 | 0.00 | 0.01 | 0.01 | 71 | 948.4 |
| 20260507191531 | 59 | 76 | 0.0 | 3.5 | 0.00 | 0.01 | 0.01 | 70 | 948.4 |
| 20260507191240 | 59 | 264 | 1.7 | 3.5 | 0.00 | 0.01 | 0.01 | 70 | 948.4 |
| 20260507190554 | 59 | 233 | 0.9 | 2.6 | 0.00 | 0.01 | 0.01 | 70 | 948.4 |
| 20260507190531 | 59 | 233 | 0.9 | 2.6 | 0.00 | 0.01 | 0.01 | 70 | 948.5 |
| 20260507190055 | 59 | 224 | 0.9 | 1.7 | 0.00 | 0.01 | 0.01 | 69 | 948.4 |
| 20260507190032 | 59 | 226 | 0.9 | 1.7 | 0.00 | 0.01 | 0.01 | 69 | 948.3 |
| 20260507185739 | 60 | 255 | 0.0 | 3.5 | 0.00 | 0.01 | 0.01 | 67 | 948.2 |
| 20260507185054 | 60 | 278 | 1.7 | 4.3 | 0.00 | 0.01 | 0.01 | 66 | 948.2 |
| 20260507185031 | 60 | 281 | 1.7 | 4.3 | 0.00 | 0.01 | 0.01 | 66 | 948.2 |
| 20260507184554 | 60 | 56 | 3.5 | 6.1 | 0.00 | 0.01 | 0.01 | 65 | 948.1 |
| 20260507184530 | 60 | 62 | 3.5 | 6.1 | 0.00 | 0.01 | 0.01 | 65 | 948.1 |
| 20260507184055 | 60 | 281 | 0.9 | 6.1 | 0.00 | 0.01 | 0.01 | 64 | 948.0 |
| 20260507184032 | 60 | 281 | 0.9 | 6.1 | 0.00 | 0.01 | 0.01 | 65 | 948.1 |
| 20260507183554 | 61 | 233 | 0.9 | 1.7 | 0.00 | 0.01 | 0.01 | 63 | 948.0 |
| 20260507183531 | 61 | 274 | 0.0 | 0.9 | 0.00 | 0.01 | 0.01 | 63 | 948.0 |
| 20260507183031 | 61 | 313 | 0.0 | 4.3 | 0.00 | 0.01 | 0.01 | 62 | 947.9 |
| 20260507182531 | 61 | 310 | 0.0 | 4.3 | 0.00 | 0.01 | 0.01 | 61 | 947.8 |
| 20260507182054 | 61 | 10 | 0.9 | 2.6 | 0.00 | 0.01 | 0.01 | 60 | 947.7 |
| 20260507182031 | 61 | 86 | 0.0 | 2.6 | 0.00 | 0.01 | 0.01 | 60 | 947.8 |
| 20260507181554 | 62 | 278 | 0.9 | 2.6 | 0.00 | 0.01 | 0.01 | 59 | 947.7 |
| 20260507181532 | 62 | 278 | 0.9 | 2.6 | 0.00 | 0.01 | 0.01 | 59 | 947.6 |
| 20260507181054 | 62 | 317 | 0.9 | 2.6 | 0.00 | 0.01 | 0.01 | 59 | 947.7 |
| 20260507181031 | 62 | 317 | 1.7 | 2.6 | 0.00 | 0.01 | 0.01 | 59 | 947.7 |
| 20260507180739 | 62 | 65 | 0.9 | 4.3 | 0.00 | 0.01 | 0.01 | 60 | 947.7 |
| 20260507180053 | 63 | 271 | 0.9 | 5.2 | 0.00 | 0.01 | 0.01 | 59 | 947.7 |
| 20260507180031 | 63 | 269 | 0.9 | 5.2 | 0.00 | 0.01 | 0.01 | 59 | 947.7 |
| 20260507175553 | 63 | 299 | 2.6 | 9.6 | 0.00 | 0.01 | 0.01 | 55 | 947.6 |
| 20260507175531 | 64 | 299 | 1.7 | 9.6 | 0.00 | 0.01 | 0.01 | 55 | 947.7 |
| 20260507175032 | 64 | 238 | 0.9 | 9.6 | 0.00 | 0.01 | 0.01 | 55 | 947.6 |
| 20260507174553 | 64 | 319 | 1.7 | 10.4 | 0.00 | 0.01 | 0.01 | 57 | 947.7 |
| 20260507174532 | 64 | 87 | 0.9 | 11.3 | 0.00 | 0.01 | 0.01 | 56 | 947.6 |
| 20260507174053 | 63 | 162 | 3.5 | 15.6 | 0.00 | 0.01 | 0.01 | 56 | 947.6 |
| 20260507174031 | 63 | 162 | 4.3 | 15.6 | 0.00 | 0.01 | 0.01 | 56 | 947.7 |
| 20260507173552 | 63 | 72 | 10.4 | 15.6 | 0.00 | 0.01 | 0.01 | 57 | 947.6 |
| 20260507173531 | 63 | 62 | 11.3 | 15.6 | 0.00 | 0.01 | 0.01 | 56 | 947.5 |
| 20260507173053 | 63 | 82 | 11.3 | 15.6 | 0.00 | 0.01 | 0.01 | 58 | 947.5 |
| 20260507173031 | 63 | 89 | 11.3 | 15.6 | 0.00 | 0.01 | 0.01 | 57 | 947.5 |
| 20260507172553 | 64 | 93 | 7.0 | 10.4 | 0.00 | 0.01 | 0.01 | 58 | 947.5 |
| 20260507172531 | 64 | 102 | 6.1 | 10.4 | 0.00 | 0.01 | 0.01 | 58 | 947.4 |
| 20260507172053 | 64 | 92 | 3.5 | 6.1 | 0.00 | 0.01 | 0.01 | 61 | 947.5 |
| 20260507172031 | 64 | 51 | 3.5 | 6.1 | 0.00 | 0.01 | 0.01 | 61 | 947.5 |
| 20260507171553 | 64 | 90 | 3.5 | 6.1 | 0.00 | 0.01 | 0.01 | 64 | 947.4 |
| 20260507171529 | 64 | 99 | 3.5 | 6.1 | 0.00 | 0.01 | 0.01 | 64 | 947.4 |
| 20260507171052 | 64 | 82 | 3.5 | 8.7 | 0.00 | 0.01 | 0.01 | 63 | 947.3 |
| 20260507171030 | 64 | 76 | 4.3 | 8.7 | 0.00 | 0.01 | 0.01 | 63 | 947.3 |
| 20260507170552 | 63 | 92 | 5.2 | 9.6 | 0.00 | 0.01 | 0.01 | 61 | 947.3 |
| 20260507170525 | 63 | 66 | 5.2 | 9.6 | 0.00 | 0.01 | 0.01 | 63 | 947.2 |
| 20260507170052 | 63 | 97 | 6.1 | 9.6 | 0.00 | 0.01 | 0.01 | 61 | 947.2 |
| 20260507170024 | 63 | 86 | 5.2 | 9.6 | 0.00 | 0.01 | 0.01 | 63 | 947.2 |
| 20260507165552 | 64 | 75 | 6.1 | 10.4 | 0.00 | 0.01 | 0.01 | 64 | 947.2 |
| 20260507165523 | 64 | 100 | 6.1 | 10.4 | 0.00 | 0.01 | 0.01 | 62 | 947.2 |
| 20260507165052 | 64 | 76 | 7.0 | 10.4 | 0.00 | 0.01 | 0.01 | 61 | 947.2 |
| 20260507165024 | 64 | 82 | 7.0 | 10.4 | 0.00 | 0.01 | 0.01 | 61 | 947.2 |
| 20260507164552 | 64 | 89 | 7.0 | 9.6 | 0.00 | 0.01 | 0.01 | 59 | 947.2 |
| 20260507164520 | 65 | 92 | 6.1 | 9.6 | 0.00 | 0.01 | 0.01 | 59 | 947.3 |
| 20260507164052 | 65 | 59 | 3.5 | 8.7 | 0.00 | 0.01 | 0.01 | 62 | 947.2 |
| 20260507164019 | 65 | 97 | 3.5 | 8.7 | 0.00 | 0.01 | 0.01 | 62 | 947.3 |
| 20260507163552 | 65 | 79 | 4.3 | 8.7 | 0.00 | 0.01 | 0.01 | 55 | 947.2 |
| 20260507163519 | 66 | 63 | 5.2 | 8.7 | 0.00 | 0.01 | 0.01 | 55 | 947.3 |
| 20260507163052 | 66 | 86 | 2.6 | 5.2 | 0.00 | 0.01 | 0.01 | 58 | 947.2 |
| 20260507163011 | 67 | 86 | 1.7 | 4.3 | 0.00 | 0.01 | 0.01 | 59 | 947.1 |
| 20260507162551 | 67 | 92 | 0.9 | 3.5 | 0.00 | 0.01 | 0.01 | 55 | 947.1 |
| 20260507162506 | 67 | 102 | 0.9 | 3.5 | 0.00 | 0.01 | 0.01 | 54 | 947.1 |
| 20260507162052 | 67 | 99 | 0.9 | 3.5 | 0.00 | 0.01 | 0.01 | 54 | 947.2 |
| 20260507162003 | 67 | 99 | 0.0 | 3.5 | 0.00 | 0.01 | 0.01 | 55 | 947.1 |
| 20260507161551 | 67 | 71 | 2.6 | 4.3 | 0.00 | 0.01 | 0.01 | 54 | 947.0 |
| 20260507161503 | 67 | 306 | 1.7 | 4.3 | 0.00 | 0.01 | 0.01 | 52 | 947.0 |
| 20260507161051 | 67 | 344 | 2.6 | 4.3 | 0.00 | 0.01 | 0.01 | 53 | 947.0 |
| 20260507161003 | 67 | 323 | 3.5 | 4.3 | 0.00 | 0.01 | 0.01 | 54 | 947.0 |
| 20260507160551 | 66 | 227 | 0.0 | 7.8 | 0.00 | 0.01 | 0.01 | 52 | 947.0 |
| 20260507160503 | 66 | 278 | 0.9 | 7.8 | 0.00 | 0.01 | 0.01 | 53 | 947.0 |
| 20260507160051 | 66 | 274 | 3.5 | 7.8 | 0.00 | 0.01 | 0.01 | 53 | 947.1 |
| 20260507160003 | 66 | 305 | 4.3 | 7.8 | 0.00 | 0.01 | 0.01 | 53 | 947.1 |
| 20260507155551 | 66 | 303 | 5.2 | 7.8 | 0.00 | 0.01 | 0.01 | 55 | 947.1 |
| 20260507155503 | 66 | 298 | 3.5 | 6.1 | 0.00 | 0.01 | 0.01 | 59 | 947.1 |
| 20260507155051 | 66 | 299 | 3.5 | 7.8 | 0.00 | 0.01 | 0.01 | 57 | 947.2 |
| 20260507155003 | 66 | 312 | 2.6 | 7.8 | 0.00 | 0.01 | 0.01 | 54 | 947.3 |
| 20260507154551 | 66 | 305 | 4.3 | 7.8 | 0.00 | 0.01 | 0.01 | 55 | 947.2 |
| 20260507154502 | 67 | 310 | 3.5 | 7.8 | 0.00 | 0.01 | 0.01 | 55 | 947.2 |
| 20260507154051 | 67 | 292 | 1.7 | 5.2 | 0.00 | 0.01 | 0.01 | 55 | 947.1 |
| 20260507154002 | 67 | 338 | 2.6 | 5.2 | 0.00 | 0.01 | 0.01 | 54 | 947.2 |
| 20260507153550 | 67 | 286 | 1.7 | 4.3 | 0.00 | 0.01 | 0.01 | 59 | 947.2 |
| 20260507153503 | 67 | 305 | 0.9 | 4.3 | 0.00 | 0.01 | 0.01 | 57 | 947.2 |
| 20260507153051 | 66 | 59 | 0.9 | 5.2 | 0.00 | 0.01 | 0.01 | 56 | 947.2 |
| 20260507153002 | 66 | 102 | 0.9 | 6.1 | 0.00 | 0.01 | 0.01 | 58 | 947.2 |
| 20260507152550 | 66 | 25 | 3.5 | 6.1 | 0.00 | 0.01 | 0.01 | 58 | 947.2 |
| 20260507152502 | 66 | 290 | 3.5 | 6.1 | 0.00 | 0.01 | 0.01 | 57 | 947.2 |
| 20260507152050 | 66 | 334 | 3.5 | 6.1 | 0.00 | 0.01 | 0.01 | 59 | 947.2 |
| 20260507152002 | 66 | 306 | 3.5 | 6.1 | 0.00 | 0.01 | 0.01 | 60 | 947.2 |
| 20260507151550 | 66 | 0 | 3.5 | 8.7 | 0.00 | 0.01 | 0.01 | 54 | 947.1 |
| 20260507151502 | 66 | 52 | 3.5 | 8.7 | 0.00 | 0.01 | 0.01 | 54 | 947.1 |
| 20260507151049 | 66 | 79 | 2.6 | 8.7 | 0.00 | 0.01 | 0.01 | 51 | 947.1 |
| 20260507151004 | 66 | 58 | 5.2 | 8.7 | 0.00 | 0.01 | 0.01 | 52 | 947.2 |
| 20260507150550 | 66 | 0 | 2.6 | 8.7 | 0.00 | 0.01 | 0.01 | 55 | 947.1 |
| 20260507150503 | 66 | 314 | 1.7 | 8.7 | 0.00 | 0.01 | 0.01 | 60 | 947.0 |
| 20260507150050 | 66 | 323 | 2.6 | 7.8 | 0.00 | 0.01 | 0.01 | 60 | 947.1 |
| 20260507150003 | 66 | 44 | 2.6 | 7.8 | 0.00 | 0.01 | 0.01 | 60 | 947.1 |
| 20260507145550 | 65 | 268 | 4.3 | 9.6 | 0.00 | 0.01 | 0.01 | 58 | 947.1 |
| 20260507145503 | 66 | 282 | 4.3 | 9.6 | 0.00 | 0.01 | 0.01 | 58 | 947.2 |
| 20260507145049 | 66 | 337 | 4.3 | 9.6 | 0.00 | 0.01 | 0.01 | 59 | 947.3 |
| 20260507145003 | 66 | 38 | 5.2 | 9.6 | 0.00 | 0.01 | 0.01 | 59 | 947.4 |
| 20260507144712 | 65 | 41 | 3.5 | 7.8 | 0.00 | 0.01 | 0.01 | 59 | 947.4 |
| 20260507144049 | 65 | 336 | 2.6 | 6.1 | 0.00 | 0.01 | 0.01 | 63 | 947.5 |
| 20260507144003 | 65 | 85 | 2.6 | 6.1 | 0.00 | 0.01 | 0.01 | 63 | 947.5 |
| 20260507143549 | 65 | 24 | 3.5 | 7.8 | 0.00 | 0.01 | 0.01 | 62 | 947.6 |
| 20260507143502 | 65 | 310 | 4.3 | 7.8 | 0.00 | 0.01 | 0.01 | 63 | 947.6 |
| 20260507143049 | 64 | 348 | 5.2 | 7.8 | 0.00 | 0.01 | 0.01 | 61 | 947.7 |
| 20260507143002 | 64 | 333 | 5.2 | 7.8 | 0.00 | 0.01 | 0.01 | 64 | 947.7 |
| 20260507142549 | 64 | 295 | 1.7 | 6.1 | 0.00 | 0.01 | 0.01 | 61 | 947.7 |
| 20260507142502 | 64 | 221 | 1.7 | 6.1 | 0.00 | 0.01 | 0.01 | 60 | 947.8 |
| 20260507142049 | 63 | 251 | 3.5 | 10.4 | 0.00 | 0.01 | 0.01 | 65 | 947.9 |
| 20260507142003 | 63 | 241 | 2.6 | 10.4 | 0.00 | 0.01 | 0.01 | 65 | 948.0 |
| 20260507141549 | 63 | 220 | 3.5 | 10.4 | 0.00 | 0.01 | 0.01 | 60 | 948.0 |
| 20260507141502 | 63 | 243 | 4.3 | 10.4 | 0.00 | 0.01 | 0.01 | 59 | 948.1 |
| 20260507141048 | 63 | 38 | 1.7 | 10.4 | 0.00 | 0.01 | 0.01 | 60 | 948.1 |
| 20260507141003 | 63 | 38 | 3.5 | 10.4 | 0.00 | 0.01 | 0.01 | 60 | 948.0 |
| 20260507140549 | 63 | 347 | 7.0 | 13.9 | 0.00 | 0.01 | 0.01 | 62 | 948.1 |
| 20260507140502 | 63 | 324 | 6.1 | 13.9 | 0.00 | 0.01 | 0.01 | 66 | 948.1 |
| 20260507140211 | 63 | 37 | 5.2 | 13.9 | 0.00 | 0.01 | 0.01 | 62 | 948.2 |
| 20260507135548 | 62 | 41 | 7.8 | 11.3 | 0.00 | 0.01 | 0.01 | 61 | 948.4 |
| 20260507135503 | 63 | 17 | 7.0 | 11.3 | 0.00 | 0.01 | 0.01 | 63 | 948.3 |
| 20260507135048 | 63 | 55 | 6.1 | 23.5 | 0.00 | 0.01 | 0.01 | 64 | 948.2 |
| 20260507135004 | 63 | 55 | 6.1 | 23.5 | 0.00 | 0.01 | 0.01 | 64 | 948.3 |
| 20260507134711 | 63 | 350 | 7.8 | 23.5 | 0.00 | 0.01 | 0.01 | 62 | 948.3 |
| 20260507134047 | 64 | 120 | 7.8 | 20.9 | 0.00 | 0.01 | 0.01 | 61 | 948.2 |
| 20260507134003 | 64 | 110 | 7.0 | 20.9 | 0.00 | 0.01 | 0.01 | 64 | 948.1 |
| 20260507133548 | 63 | 62 | 8.7 | 20.9 | 0.00 | 0.01 | 0.01 | 61 | 948.1 |
| 20260507133502 | 63 | 83 | 4.3 | 20.9 | 0.00 | 0.01 | 0.01 | 62 | 948.1 |
| 20260507133212 | 63 | 125 | 6.1 | 18.2 | 0.00 | 0.01 | 0.01 | 65 | 948.1 |
| 20260507132712 | 63 | 89 | 4.3 | 19.1 | 0.00 | 0.01 | 0.01 | 63 | 948.3 |
| 20260507132047 | 63 | 78 | 10.4 | 19.1 | 0.00 | 0.01 | 0.01 | 60 | 948.3 |
| 20260507132002 | 63 | 83 | 11.3 | 19.1 | 0.00 | 0.01 | 0.01 | 60 | 948.2 |
| 20260507131547 | 64 | 89 | 7.0 | 15.6 | 0.00 | 0.01 | 0.01 | 60 | 948.2 |
| 20260507131503 | 64 | 78 | 3.5 | 12.2 | 0.00 | 0.01 | 0.01 | 58 | 948.3 |
| 20260507131212 | 64 | 293 | 2.6 | 7.8 | 0.00 | 0.01 | 0.01 | 58 | 948.3 |
| 20260507130547 | 64 | 69 | 2.6 | 11.3 | 0.00 | 0.01 | 0.01 | 58 | 948.2 |
| 20260507130503 | 64 | 51 | 3.5 | 11.3 | 0.00 | 0.01 | 0.01 | 59 | 948.2 |
| 20260507130048 | 64 | 54 | 5.2 | 11.3 | 0.00 | 0.01 | 0.01 | 63 | 948.3 |
| 20260507130003 | 64 | 71 | 6.1 | 11.3 | 0.00 | 0.01 | 0.01 | 63 | 948.3 |
| 20260507125547 | 64 | 258 | 7.0 | 10.4 | 0.00 | 0.01 | 0.01 | 60 | 948.3 |
| 20260507125502 | 64 | 317 | 6.1 | 10.4 | 0.00 | 0.01 | 0.01 | 59 | 948.3 |
| 20260507125047 | 64 | 303 | 2.6 | 7.8 | 0.00 | 0.01 | 0.01 | 56 | 948.4 |
| 20260507125002 | 64 | 272 | 2.6 | 7.8 | 0.00 | 0.01 | 0.01 | 56 | 948.4 |
| 20260507124547 | 64 | 320 | 1.7 | 5.2 | 0.00 | 0.01 | 0.01 | 61 | 948.5 |
| 20260507124502 | 64 | 265 | 0.9 | 5.2 | 0.00 | 0.01 | 0.01 | 61 | 948.5 |
| 20260507124047 | 64 | 333 | 1.7 | 4.3 | 0.00 | 0.01 | 0.01 | 62 | 948.4 |
| 20260507124003 | 64 | 75 | 0.9 | 3.5 | 0.00 | 0.01 | 0.01 | 66 | 948.5 |
| 20260507123546 | 64 | 296 | 1.7 | 7.8 | 0.00 | 0.01 | 0.01 | 61 | 948.5 |
| 20260507123503 | 64 | 306 | 1.7 | 7.8 | 0.00 | 0.01 | 0.01 | 61 | 948.5 |
| 20260507123046 | 64 | 131 | 2.6 | 9.6 | 0.00 | 0.01 | 0.01 | 63 | 948.5 |
| 20260507123003 | 65 | 131 | 3.5 | 9.6 | 0.00 | 0.01 | 0.01 | 63 | 948.5 |
| 20260507122546 | 65 | 73 | 6.1 | 9.6 | 0.00 | 0.01 | 0.01 | 61 | 948.5 |
| 20260507122502 | 65 | 41 | 6.1 | 9.6 | 0.00 | 0.01 | 0.01 | 62 | 948.5 |
| 20260507122046 | 66 | 314 | 2.6 | 5.2 | 0.00 | 0.01 | 0.01 | 62 | 948.5 |
| 20260507122002 | 66 | 321 | 1.7 | 5.2 | 0.00 | 0.01 | 0.01 | 63 | 948.5 |
| 20260507121546 | 65 | 350 | 2.6 | 10.4 | 0.00 | 0.01 | 0.01 | 61 | 948.6 |
| 20260507121502 | 65 | 24 | 2.6 | 10.4 | 0.00 | 0.01 | 0.01 | 62 | 948.5 |
| 20260507121045 | 65 | 344 | 1.7 | 10.4 | 0.00 | 0.01 | 0.01 | 62 | 948.7 |
| 20260507121002 | 65 | 82 | 2.6 | 10.4 | 0.00 | 0.01 | 0.01 | 60 | 948.7 |
| 20260507120546 | 65 | 35 | 3.5 | 8.7 | 0.00 | 0.01 | 0.01 | 61 | 948.7 |
| 20260507120502 | 65 | 303 | 3.5 | 6.1 | 0.00 | 0.01 | 0.01 | 61 | 948.7 |
| 20260507120046 | 64 | 66 | 2.6 | 7.8 | 0.00 | 0.01 | 0.01 | 58 | 948.7 |
| 20260507120002 | 64 | 1 | 2.6 | 7.8 | 0.00 | 0.01 | 0.01 | 58 | 948.7 |
| 20260507115545 | 64 | 62 | 5.2 | 9.6 | 0.00 | 0.01 | 0.01 | 61 | 948.8 |
| 20260507115502 | 64 | 298 | 5.2 | 9.6 | 0.00 | 0.01 | 0.01 | 60 | 948.9 |
| 20260507115046 | 65 | 289 | 3.5 | 9.6 | 0.00 | 0.01 | 0.01 | 59 | 948.9 |
| 20260507115002 | 65 | 292 | 3.5 | 9.6 | 0.00 | 0.01 | 0.01 | 59 | 948.9 |
| 20260507114545 | 65 | 14 | 2.6 | 10.4 | 0.00 | 0.01 | 0.01 | 62 | 948.8 |
| 20260507114502 | 65 | 75 | 1.7 | 10.4 | 0.00 | 0.01 | 0.01 | 60 | 948.8 |
| 20260507114045 | 65 | 295 | 2.6 | 10.4 | 0.00 | 0.01 | 0.01 | 64 | 948.9 |
| 20260507114002 | 65 | 336 | 3.5 | 10.4 | 0.00 | 0.01 | 0.01 | 64 | 948.9 |
| 20260507113545 | 65 | 47 | 4.3 | 8.7 | 0.00 | 0.01 | 0.01 | 62 | 948.8 |
| 20260507113503 | 65 | 275 | 5.2 | 8.7 | 0.00 | 0.01 | 0.01 | 62 | 948.9 |
| 20260507113211 | 65 | 21 | 4.3 | 6.1 | 0.00 | 0.01 | 0.01 | 65 | 948.9 |
| 20260507112545 | 64 | 336 | 4.3 | 8.7 | 0.00 | 0.01 | 0.01 | 64 | 948.8 |
| 20260507112502 | 64 | 320 | 4.3 | 8.7 | 0.00 | 0.01 | 0.01 | 64 | 948.9 |
| 20260507112045 | 64 | 16 | 6.1 | 8.7 | 0.00 | 0.01 | 0.01 | 63 | 949.0 |
| 20260507112002 | 64 | 358 | 5.2 | 8.7 | 0.00 | 0.01 | 0.01 | 65 | 949.0 |
| 20260507111545 | 64 | 310 | 3.5 | 8.7 | 0.00 | 0.01 | 0.01 | 63 | 949.0 |
| 20260507111503 | 64 | 285 | 2.6 | 8.7 | 0.00 | 0.01 | 0.01 | 64 | 948.9 |
| 20260507111211 | 64 | 309 | 2.6 | 8.7 | 0.00 | 0.01 | 0.01 | 66 | 949.0 |
| 20260507110711 | 63 | 312 | 2.6 | 6.1 | 0.00 | 0.01 | 0.01 | 65 | 949.0 |
| 20260507110046 | 63 | 313 | 2.6 | 6.1 | 0.00 | 0.01 | 0.01 | 65 | 949.1 |
| 20260507110002 | 63 | 314 | 2.6 | 6.1 | 0.00 | 0.01 | 0.01 | 65 | 949.0 |
| 20260507105711 | 63 | 288 | 0.9 | 6.1 | 0.00 | 0.01 | 0.01 | 64 | 949.1 |
| 20260507105045 | 63 | 306 | 5.2 | 6.1 | 0.00 | 0.01 | 0.01 | 65 | 949.1 |
| 20260507105002 | 63 | 313 | 5.2 | 6.1 | 0.00 | 0.01 | 0.01 | 65 | 949.1 |
| 20260507104544 | 63 | 312 | 1.7 | 6.1 | 0.00 | 0.01 | 0.01 | 68 | 949.1 |
| 20260507104503 | 63 | 79 | 0.0 | 6.1 | 0.00 | 0.01 | 0.01 | 68 | 949.1 |
| 20260507104044 | 62 | 303 | 2.6 | 6.1 | 0.00 | 0.01 | 0.01 | 65 | 949.2 |
| 20260507104003 | 62 | 303 | 3.5 | 6.1 | 0.00 | 0.01 | 0.01 | 66 | 949.2 |
| 20260507103544 | 62 | 288 | 3.5 | 5.2 | 0.00 | 0.01 | 0.01 | 65 | 949.2 |
| 20260507103502 | 62 | 258 | 3.5 | 5.2 | 0.00 | 0.01 | 0.01 | 68 | 949.3 |
| 20260507103044 | 62 | 272 | 1.7 | 3.5 | 0.00 | 0.01 | 0.01 | 66 | 949.3 |
| 20260507103003 | 62 | 269 | 1.7 | 3.5 | 0.00 | 0.01 | 0.01 | 66 | 949.3 |
| 20260507102543 | 62 | 221 | 0.9 | 2.6 | 0.00 | 0.01 | 0.01 | 69 | 949.3 |
| 20260507102502 | 61 | 234 | 0.9 | 2.6 | 0.00 | 0.01 | 0.01 | 69 | 949.2 |
| 20260507102044 | 61 | 319 | 0.9 | 5.2 | 0.00 | 0.01 | 0.01 | 66 | 949.3 |
| 20260507102002 | 61 | 299 | 0.9 | 5.2 | 0.00 | 0.01 | 0.01 | 66 | 949.3 |
| 20260507101711 | 61 | 286 | 0.9 | 5.2 | 0.00 | 0.01 | 0.01 | 67 | 949.4 |
| 20260507101043 | 60 | 282 | 2.6 | 6.1 | 0.00 | 0.01 | 0.01 | 68 | 949.5 |
| 20260507101002 | 60 | 295 | 1.7 | 6.1 | 0.00 | 0.01 | 0.01 | 68 | 949.5 |
| 20260507100543 | 60 | 240 | 3.5 | 6.1 | 0.00 | 0.01 | 0.01 | 70 | 949.6 |
| 20260507100502 | 60 | 274 | 3.5 | 6.1 | 0.00 | 0.01 | 0.01 | 71 | 949.6 |
| 20260507100044 | 59 | 271 | 1.7 | 6.1 | 0.00 | 0.01 | 0.01 | 69 | 949.6 |
| 20260507100002 | 59 | 309 | 2.6 | 6.1 | 0.00 | 0.01 | 0.01 | 69 | 949.6 |
| 20260507095543 | 59 | 331 | 1.7 | 5.2 | 0.00 | 0.01 | 0.01 | 71 | 949.7 |
| 20260507095502 | 59 | 44 | 1.7 | 5.2 | 0.00 | 0.01 | 0.01 | 70 | 949.7 |
| 20260507095043 | 59 | 336 | 3.5 | 5.2 | 0.00 | 0.01 | 0.01 | 70 | 949.7 |
| 20260507095002 | 59 | 323 | 2.6 | 5.2 | 0.00 | 0.01 | 0.01 | 70 | 949.8 |
| 20260507094543 | 59 | 212 | 1.7 | 4.3 | 0.00 | 0.01 | 0.01 | 71 | 949.8 |
| 20260507094502 | 59 | 261 | 1.7 | 6.1 | 0.00 | 0.01 | 0.01 | 71 | 949.8 |
| 20260507094043 | 59 | 262 | 1.7 | 6.1 | 0.00 | 0.01 | 0.01 | 74 | 949.9 |
| 20260507094001 | 58 | 288 | 2.6 | 6.1 | 0.00 | 0.01 | 0.01 | 74 | 949.8 |
| 20260507093543 | 58 | 234 | 1.7 | 6.1 | 0.00 | 0.01 | 0.01 | 71 | 949.8 |
| 20260507093503 | 58 | 220 | 1.7 | 5.2 | 0.00 | 0.01 | 0.01 | 73 | 949.8 |
| 20260507093042 | 58 | 289 | 2.6 | 5.2 | 0.00 | 0.01 | 0.01 | 71 | 949.9 |
| 20260507093002 | 58 | 231 | 2.6 | 5.2 | 0.00 | 0.01 | 0.01 | 72 | 949.9 |
| 20260507092542 | 57 | 248 | 1.7 | 5.2 | 0.00 | 0.01 | 0.01 | 75 | 949.9 |
| 20260507092502 | 57 | 289 | 1.7 | 5.2 | 0.00 | 0.01 | 0.01 | 76 | 949.9 |
| 20260507092211 | 57 | 264 | 1.7 | 5.2 | 0.00 | 0.01 | 0.01 | 75 | 949.9 |
| 20260507091542 | 56 | 248 | 1.7 | 5.2 | 0.00 | 0.01 | 0.01 | 75 | 950.0 |
| 20260507091502 | 56 | 279 | 1.7 | 5.2 | 0.00 | 0.01 | 0.01 | 73 | 950.0 |
| 20260507091042 | 56 | 226 | 1.7 | 5.2 | 0.00 | 0.01 | 0.01 | 76 | 950.0 |
| 20260507091003 | 56 | 268 | 1.7 | 5.2 | 0.00 | 0.01 | 0.01 | 76 | 949.9 |
| 20260507090542 | 55 | 214 | 2.6 | 5.2 | 0.00 | 0.01 | 0.01 | 76 | 949.9 |
| 20260507090503 | 55 | 224 | 2.6 | 5.2 | 0.00 | 0.01 | 0.01 | 76 | 950.0 |
| 20260507090042 | 55 | 290 | 3.5 | 4.3 | 0.00 | 0.01 | 0.01 | 76 | 949.9 |
| 20260507090002 | 55 | 258 | 3.5 | 4.3 | 0.00 | 0.01 | 0.01 | 76 | 950.0 |
| 20260507085541 | 54 | 237 | 2.6 | 4.3 | 0.00 | 0.01 | 0.01 | 78 | 950.0 |
| 20260507085503 | 54 | 248 | 2.6 | 4.3 | 0.00 | 0.01 | 0.01 | 78 | 950.0 |
| 20260507085041 | 54 | 295 | 1.7 | 4.3 | 0.00 | 0.01 | 0.01 | 82 | 950.0 |
| 20260507085002 | 53 | 292 | 1.7 | 4.3 | 0.00 | 0.01 | 0.01 | 80 | 950.0 |
| 20260507084542 | 53 | 278 | 2.6 | 4.3 | 0.00 | 0.01 | 0.01 | 81 | 950.0 |
| 20260507084503 | 53 | 279 | 3.5 | 4.3 | 0.00 | 0.01 | 0.01 | 81 | 950.0 |
| 20260507084212 | 53 | 285 | 2.6 | 3.5 | 0.00 | 0.01 | 0.01 | 83 | 950.0 |
| 20260507083710 | 53 | 275 | 0.0 | 1.7 | 0.00 | 0.01 | 0.01 | 86 | 950.0 |
| 20260507083041 | 52 | 268 | 0.0 | 0.0 | 0.00 | 0.01 | 0.01 | 87 | 950.0 |
| 20260507083003 | 52 | 268 | 0.0 | 0.0 | 0.00 | 0.01 | 0.01 | 87 | 950.0 |
| 20260507082541 | 51 | 269 | 0.0 | 0.0 | 0.00 | 0.01 | 0.01 | 90 | 950.0 |
| 20260507082502 | 51 | 269 | 0.0 | 0.0 | 0.00 | 0.01 | 0.01 | 90 | 950.0 |
| 20260507082041 | 50 | 269 | 0.0 | 0.0 | 0.00 | 0.01 | 0.01 | 92 | 950.0 |
| 20260507082002 | 50 | 269 | 0.0 | 0.0 | 0.00 | 0.01 | 0.01 | 92 | 950.0 |
| 20260507081541 | 49 | 269 | 0.0 | 0.0 | 0.00 | 0.01 | 0.01 | 93 | 950.0 |
| 20260507081502 | 49 | 269 | 0.0 | 0.0 | 0.00 | 0.01 | 0.01 | 94 | 950.1 |
| 20260507081211 | 48 | 269 | 0.0 | 0.0 | 0.00 | 0.01 | 0.01 | 95 | 950.0 |
| 20260507080541 | 47 | 269 | 0.0 | 1.7 | 0.00 | 0.01 | 0.01 | 96 | 950.0 |
| 20260507080503 | 47 | 269 | 0.0 | 1.7 | 0.00 | 0.01 | 0.01 | 96 | 950.1 |
| 20260507080041 | 47 | 269 | 0.0 | 1.7 | 0.00 | 0.01 | 0.01 | 96 | 950.1 |
| 20260507080003 | 47 | 269 | 0.0 | 1.7 | 0.00 | 0.01 | 0.01 | 96 | 950.1 |
| 20260507075711 | 47 | 268 | 0.9 | 1.7 | 0.00 | 0.01 | 0.01 | 97 | 950.1 |
| 20260507075041 | 46 | 276 | 0.0 | 0.0 | 0.00 | 0.01 | 0.01 | 97 | 950.1 |
| 20260507075003 | 46 | 282 | 0.0 | 0.0 | 0.00 | 0.01 | 0.01 | 97 | 950.1 |
| 20260507074540 | 46 | 283 | 0.0 | 0.9 | 0.00 | 0.01 | 0.01 | 97 | 950.1 |
| 20260507074502 | 46 | 283 | 0.0 | 0.9 | 0.00 | 0.01 | 0.01 | 97 | 950.1 |
| 20260507074040 | 45 | 283 | 0.0 | 1.7 | 0.00 | 0.01 | 0.01 | 97 | 950.1 |
| 20260507074002 | 45 | 283 | 0.0 | 1.7 | 0.00 | 0.01 | 0.01 | 97 | 950.2 |
| 20260507073540 | 44 | 282 | 0.0 | 1.7 | 0.00 | 0.01 | 0.01 | 96 | 950.2 |
| 20260507073502 | 44 | 282 | 0.0 | 1.7 | 0.00 | 0.01 | 0.01 | 96 | 950.2 |
| 20260507073040 | 44 | 259 | 1.7 | 1.7 | 0.00 | 0.01 | 0.01 | 96 | 950.3 |
| 20260507073002 | 43 | 259 | 1.7 | 1.7 | 0.00 | 0.01 | 0.01 | 96 | 950.3 |
| 20260507072711 | 43 | 259 | 0.0 | 1.7 | 0.00 | 0.01 | 0.01 | 96 | 950.3 |
| 20260507072040 | 43 | 259 | 0.9 | 1.7 | 0.00 | 0.01 | 0.01 | 96 | 950.2 |
| 20260507072002 | 43 | 259 | 0.9 | 1.7 | 0.00 | 0.01 | 0.01 | 96 | 950.2 |
| 20260507071540 | 42 | 259 | 0.0 | 1.7 | 0.00 | 0.01 | 0.01 | 96 | 950.1 |
| 20260507071501 | 42 | 259 | 0.0 | 1.7 | 0.00 | 0.01 | 0.01 | 96 | 950.1 |
| 20260507071211 | 42 | 259 | 0.9 | 1.7 | 0.00 | 0.01 | 0.01 | 96 | 950.2 |
| 20260507070540 | 42 | 171 | 0.0 | 0.0 | 0.00 | 0.01 | 0.01 | 96 | 950.1 |
| 20260507070502 | 42 | 171 | 0.0 | 0.0 | 0.00 | 0.01 | 0.01 | 96 | 950.1 |
| 20260507070039 | 42 | 171 | 0.0 | 0.0 | 0.00 | 0.01 | 0.01 | 96 | 950.1 |
| 20260507070003 | 42 | 171 | 0.0 | 0.0 | 0.00 | 0.01 | 0.01 | 97 | 950.1 |
| 20260507065539 | 42 | 171 | 0.0 | 0.0 | 0.00 | 0.01 | 0.01 | 97 | 950.1 |
| 20260507065503 | 42 | 171 | 0.0 | 0.0 | 0.00 | 0.01 | 0.01 | 97 | 950.1 |
| 20260507065039 | 42 | 168 | 0.0 | 0.9 | 0.00 | 0.01 | 0.01 | 97 | 950.2 |
| 20260507065003 | 41 | 168 | 0.0 | 0.9 | 0.00 | 0.01 | 0.01 | 97 | 950.1 |
| 20260507064539 | 41 | 168 | 0.0 | 0.9 | 0.00 | 0.01 | 0.01 | 97 | 950.1 |
| 20260507064501 | 41 | 168 | 0.0 | 0.9 | 0.00 | 0.01 | 0.01 | 97 | 950.1 |
| 20260507064039 | 41 | 168 | 0.0 | 0.9 | 0.00 | 0.01 | 0.01 | 97 | 950.1 |
| 20260507064003 | 41 | 168 | 0.0 | 0.9 | 0.00 | 0.01 | 0.01 | 97 | 950.1 |
| 20260507063539 | 40 | 168 | 0.0 | 0.9 | 0.00 | 0.01 | 0.01 | 97 | 950.2 |
| 20260507063502 | 40 | 168 | 0.0 | 0.9 | 0.00 | 0.01 | 0.01 | 97 | 950.2 |
| 20260507063039 | 39 | 168 | 0.0 | 0.0 | 0.00 | 0.01 | 0.01 | 97 | 950.1 |
| 20260507063002 | 39 | 168 | 0.0 | 0.0 | 0.00 | 0.01 | 0.01 | 97 | 950.1 |
| 20260507062538 | 39 | 168 | 0.0 | 0.0 | 0.00 | 0.01 | 0.01 | 97 | 950.1 |
| 20260507062502 | 39 | 168 | 0.0 | 0.0 | 0.00 | 0.01 | 0.01 | 97 | 950.1 |
| 20260507062039 | 39 | 166 | 0.0 | 0.0 | 0.00 | 0.01 | 0.01 | 97 | 950.1 |
| 20260507062003 | 39 | 166 | 0.0 | 0.0 | 0.00 | 0.01 | 0.01 | 97 | 950.1 |
| 20260507061538 | 39 | 166 | 0.0 | 0.0 | 0.00 | 0.01 | 0.01 | 97 | 950.3 |
| 20260507061504 | 39 | 166 | 0.0 | 0.0 | 0.00 | 0.01 | 0.01 | 97 | 950.1 |
| 20260507061038 | 39 | 166 | 0.0 | 0.0 | 0.00 | 0.01 | 0.01 | 97 | 950.2 |
| 20260507061002 | 39 | 166 | 0.0 | 0.0 | 0.00 | 0.01 | 0.01 | 97 | 950.2 |
| 20260507060538 | 38 | 166 | 0.0 | 0.0 | 0.00 | 0.01 | 0.01 | 97 | 950.2 |
| 20260507060503 | 38 | 166 | 0.0 | 0.0 | 0.00 | 0.01 | 0.01 | 97 | 950.3 |
| 20260507060038 | 38 | 169 | 0.0 | 0.0 | 0.00 | 0.01 | 0.01 | 97 | 950.3 |
| 20260507060002 | 38 | 169 | 0.0 | 0.0 | 0.00 | 0.01 | 0.01 | 97 | 950.3 |
| 20260507055538 | 38 | 169 | 0.0 | 0.0 | 0.00 | 0.01 | 0.01 | 97 | 950.1 |
| 20260507055503 | 38 | 169 | 0.0 | 0.0 | 0.00 | 0.01 | 0.01 | 97 | 950.2 |
| 20260507055038 | 38 | 169 | 0.0 | 0.0 | 0.00 | 0.01 | 0.01 | 97 | 950.2 |
| 20260507055002 | 38 | 169 | 0.0 | 0.0 | 0.00 | 0.01 | 0.01 | 97 | 950.2 |
| 20260507054538 | 38 | 169 | 0.0 | 0.0 | 0.00 | 0.01 | 0.01 | 97 | 950.1 |
| 20260507054503 | 38 | 169 | 0.0 | 0.0 | 0.00 | 0.01 | 0.01 | 97 | 950.1 |
| 20260507054038 | 38 | 169 | 0.0 | 0.0 | 0.00 | 0.01 | 0.01 | 97 | 950.1 |
| 20260507054003 | 38 | 169 | 0.0 | 0.0 | 0.00 | 0.01 | 0.01 | 97 | 950.2 |
| 20260507053711 | 37 | 169 | 0.0 | 0.0 | 0.00 | 0.01 | 0.01 | 97 | 950.1 |
| 20260507053038 | 37 | 169 | 0.0 | 0.0 | 0.00 | 0.01 | 0.01 | 97 | 950.1 |
| 20260507053003 | 37 | 169 | 0.0 | 0.0 | 0.00 | 0.01 | 0.01 | 97 | 950.1 |
| 20260507052538 | 37 | 169 | 0.0 | 0.0 | 0.00 | 0.01 | 0.01 | 97 | 950.2 |
| 20260507052503 | 37 | 169 | 0.0 | 0.0 | 0.00 | 0.01 | 0.01 | 97 | 950.1 |
| 20260507052038 | 37 | 169 | 0.0 | 0.0 | 0.00 | 0.01 | 0.01 | 97 | 950.0 |
| 20260507052003 | 37 | 169 | 0.0 | 0.0 | 0.00 | 0.01 | 0.01 | 97 | 950.0 |
| 20260507051537 | 37 | 169 | 0.0 | 0.0 | 0.01 | 0.01 | 0.01 | 97 | 950.0 |
| 20260507051503 | 37 | 169 | 0.0 | 0.0 | 0.01 | 0.01 | 0.01 | 97 | 950.0 |
| 20260507051037 | 37 | 169 | 0.0 | 0.0 | 0.01 | 0.01 | 0.01 | 97 | 949.9 |
| 20260507051002 | 37 | 169 | 0.0 | 0.0 | 0.01 | 0.01 | 0.01 | 97 | 950.0 |
| 20260507050537 | 37 | 169 | 0.0 | 0.0 | 0.01 | 0.01 | 0.01 | 97 | 950.0 |
| 20260507050503 | 37 | 169 | 0.0 | 0.0 | 0.01 | 0.01 | 0.01 | 97 | 950.1 |
| 20260507050037 | 37 | 169 | 0.0 | 0.0 | 0.01 | 0.01 | 0.01 | 97 | 950.0 |
| 20260507050002 | 37 | 169 | 0.0 | 0.0 | 0.01 | 0.00 | 0.01 | 97 | 950.0 |
| 20260507045537 | 37 | 169 | 0.0 | 0.0 | 0.01 | 0.00 | 0.01 | 96 | 949.9 |
| 20260507045502 | 37 | 169 | 0.0 | 0.0 | 0.01 | 0.00 | 0.01 | 96 | 949.9 |
| 20260507045036 | 37 | 169 | 0.0 | 0.0 | 0.01 | 0.00 | 0.01 | 96 | 949.9 |
| 20260507045002 | 37 | 169 | 0.0 | 0.0 | 0.01 | 0.00 | 0.01 | 96 | 950.0 |
| 20260507044711 | 37 | 169 | 0.0 | 0.0 | 0.01 | 0.00 | 0.01 | 96 | 950.0 |
| 20260507044034 | 37 | 169 | 0.0 | 0.0 | 0.01 | 0.00 | 0.01 | 96 | 950.0 |
| 20260507044002 | 37 | 169 | 0.0 | 0.0 | 0.01 | 0.00 | 0.01 | 96 | 950.0 |
| 20260507043502 | 38 | 169 | 0.0 | 0.0 | 0.01 | 0.00 | 0.01 | 97 | 949.9 |
| 20260507043003 | 37 | 169 | 0.0 | 0.0 | 0.01 | 0.00 | 0.01 | 96 | 950.0 |
| 20260507042711 | 37 | 169 | 0.0 | 0.0 | 0.01 | 0.00 | 0.01 | 96 | 950.0 |
| 20260507042003 | 37 | 169 | 0.0 | 0.9 | 0.01 | 0.00 | 0.01 | 96 | 950.0 |
| 20260507041530 | 37 | 169 | 0.0 | 0.9 | 0.00 | 0.00 | 0.00 | 96 | 950.0 |
| 20260507041502 | 37 | 169 | 0.0 | 0.0 | 0.00 | 0.00 | 0.00 | 96 | 950.0 |
| 20260507041002 | 37 | 169 | 0.0 | 0.9 | 0.00 | 0.00 | 0.00 | 96 | 949.9 |
| 20260507040502 | 38 | 169 | 0.0 | 0.9 | 0.00 | 0.00 | 0.00 | 96 | 950.0 |
| 20260507040002 | 38 | 166 | 0.0 | 0.9 | 0.00 | 0.00 | 0.00 | 96 | 949.9 |
| 20260507035502 | 38 | 165 | 0.0 | 0.0 | 0.00 | 0.00 | 0.00 | 96 | 949.9 |
| 20260507035212 | 38 | 165 | 0.0 | 0.0 | 0.00 | 0.00 | 0.00 | 96 | 950.1 |
| 20260507034502 | 38 | 165 | 0.0 | 0.0 | 0.00 | 0.00 | 0.00 | 96 | 950.0 |
| 20260507034031 | 37 | 165 | 0.0 | 0.0 | 0.00 | 0.00 | 0.00 | 96 | 950.0 |
| 20260507034002 | 38 | 165 | 0.0 | 0.0 | 0.00 | 0.00 | 0.00 | 96 | 950.0 |
| 20260507033503 | 38 | 165 | 0.0 | 0.0 | 0.00 | 0.00 | 0.00 | 96 | 950.0 |
| 20260507033003 | 38 | 165 | 0.0 | 0.0 | 0.00 | 0.00 | 0.00 | 95 | 949.9 |
| 20260507032502 | 38 | 165 | 0.0 | 0.0 | 0.00 | 0.00 | 0.00 | 95 | 950.0 |
| 20260507032031 | 38 | 165 | 0.0 | 0.0 | 0.00 | 0.00 | 0.00 | 95 | 950.0 |
| 20260507032003 | 39 | 165 | 0.0 | 0.0 | 0.00 | 0.00 | 0.00 | 95 | 950.0 |
| 20260507031503 | 39 | 165 | 0.0 | 0.0 | 0.00 | 0.00 | 0.00 | 96 | 950.0 |
| 20260507031003 | 39 | 165 | 0.0 | 0.9 | 0.00 | 0.00 | 0.00 | 96 | 949.9 |
| 20260507030502 | 40 | 165 | 0.0 | 0.9 | 0.00 | 0.00 | 0.00 | 96 | 949.9 |
| 20260507030003 | 39 | 165 | 0.0 | 0.0 | 0.00 | 0.00 | 0.00 | 96 | 949.9 |
| 20260507025502 | 40 | 165 | 0.0 | 0.9 | 0.00 | 0.00 | 0.00 | 96 | 949.9 |
| 20260507025002 | 39 | 165 | 0.0 | 0.9 | 0.00 | 0.00 | 0.00 | 96 | 949.9 |
| 20260507024502 | 39 | 243 | 0.0 | 0.9 | 0.00 | 0.00 | 0.00 | 95 | 950.0 |
| 20260507024210 | 40 | 243 | 0.0 | 1.7 | 0.00 | 0.00 | 0.00 | 95 | 950.0 |
| 20260507023503 | 40 | 243 | 0.0 | 1.7 | 0.00 | 0.00 | 0.00 | 95 | 950.0 |
| 20260507023002 | 40 | 200 | 0.0 | 0.9 | 0.00 | 0.00 | 0.00 | 96 | 949.9 |
| 20260507022502 | 40 | 200 | 0.0 | 0.0 | 0.00 | 0.00 | 0.00 | 96 | 949.8 |
| 20260507022002 | 40 | 200 | 0.0 | 0.0 | 0.00 | 0.00 | 0.00 | 95 | 949.7 |
| 20260507021503 | 40 | 200 | 0.0 | 0.0 | 0.00 | 0.00 | 0.00 | 95 | 949.8 |
| 20260507021002 | 40 | 200 | 0.0 | 0.9 | 0.00 | 0.00 | 0.00 | 95 | 949.9 |
| 20260507020502 | 40 | 200 | 0.0 | 0.9 | 0.00 | 0.00 | 0.00 | 95 | 950.0 |
| 20260507020003 | 40 | 200 | 0.0 | 0.9 | 0.00 | 0.00 | 0.00 | 95 | 950.0 |
| 20260507015502 | 40 | 200 | 0.0 | 0.9 | 0.00 | 0.00 | 0.00 | 95 | 950.0 |
| 20260507015002 | 40 | 200 | 0.0 | 0.9 | 0.00 | 0.00 | 0.00 | 94 | 950.0 |
| 20260507014503 | 40 | 200 | 0.0 | 0.9 | 0.00 | 0.00 | 0.00 | 93 | 950.0 |
| 20260507014212 | 42 | 149 | 0.0 | 0.9 | 0.00 | 0.00 | 0.00 | 96 | 950.1 |
| 20260507013502 | 41 | 157 | 0.0 | 0.0 | 0.00 | 0.00 | 0.00 | 94 | 950.0 |
| 20260507013002 | 41 | 158 | 0.0 | 0.9 | 0.00 | 0.00 | 0.00 | 94 | 950.1 |
| 20260507012502 | 41 | 152 | 0.0 | 0.9 | 0.00 | 0.00 | 0.00 | 94 | 950.1 |
| 20260507012003 | 41 | 152 | 0.0 | 0.9 | 0.00 | 0.00 | 0.00 | 93 | 950.0 |
| 20260507011503 | 42 | 152 | 0.0 | 0.9 | 0.00 | 0.00 | 0.00 | 94 | 950.1 |
| 20260507011003 | 43 | 152 | 0.0 | 0.0 | 0.00 | 0.00 | 0.00 | 95 | 950.1 |
| 20260507010502 | 42 | 152 | 0.0 | 0.0 | 0.00 | 0.00 | 0.00 | 95 | 950.2 |
| 20260507010003 | 42 | 152 | 0.0 | 0.0 | 0.00 | 0.00 | 0.00 | 94 | 950.2 |
| 20260507005502 | 42 | 152 | 0.0 | 0.9 | 0.00 | 0.00 | 0.00 | 94 | 950.3 |
| 20260507005002 | 42 | 152 | 0.0 | 0.9 | 0.00 | 0.00 | 0.00 | 94 | 950.3 |
| 20260507004502 | 42 | 152 | 0.0 | 0.0 | 0.00 | 0.00 | 0.00 | 94 | 950.4 |
| 20260507004002 | 43 | 152 | 0.0 | 0.0 | 0.00 | 0.00 | 0.00 | 94 | 950.4 |
| 20260507003500 | 43 | 152 | 0.0 | 0.0 | 0.00 | 0.00 | 0.00 | 95 | 950.4 |
| 20260507002957 | 43 | 151 | 0.0 | 0.0 | 0.00 | 0.00 | 0.00 | 95 | 950.4 |
| 20260507002431 | 43 | 151 | 0.0 | 0.0 | 0.00 | 0.00 | 0.00 | 94 | 950.5 |
| 20260507002141 | 43 | 152 | 0.0 | 0.0 | 0.00 | 0.00 | 0.00 | 95 | 950.5 |
| 20260507001431 | 43 | 152 | 0.0 | 0.0 | 0.00 | 0.00 | 0.00 | 94 | 950.7 |
| 20260507000931 | 43 | 151 | 0.0 | 0.0 | 0.00 | 0.00 | 0.00 | 94 | 950.6 |
| 20260507000431 | 43 | 151 | 0.0 | 0.0 | 0.00 | 0.00 | 0.00 | 94 | 950.6 |
| 20260506235930 | 43 | 151 | 0.0 | 0.0 | 0.00 | 0.00 | 0.00 | 94 | 950.6 |
| 20260506235430 | 43 | 151 | 0.0 | 0.0 | 0.00 | 0.00 | 0.00 | 94 | 950.7 |
| 20260506234930 | 43 | 212 | 0.0 | 0.0 | 0.00 | 0.00 | 0.00 | 94 | 950.6 |
| 20260506234431 | 43 | 212 | 0.0 | 0.9 | 0.00 | 0.00 | 0.00 | 94 | 950.7 |
| 20260506233930 | 43 | 212 | 0.0 | 0.9 | 0.00 | 0.00 | 0.00 | 93 | 950.7 |
| 20260506233430 | 43 | 237 | 0.0 | 1.7 | 0.00 | 0.00 | 0.00 | 93 | 950.6 |
| 20260506232930 | 43 | 237 | 0.0 | 1.7 | 0.00 | 0.00 | 0.00 | 93 | 950.7 |
| 20260506232638 | 43 | 178 | 0.0 | 0.9 | 0.00 | 0.00 | 0.00 | 93 | 950.7 |
| 20260506231930 | 43 | 142 | 0.0 | 0.0 | 0.00 | 0.00 | 0.00 | 92 | 950.6 |
| 20260506231429 | 43 | 142 | 0.0 | 0.9 | 0.00 | 0.00 | 0.00 | 92 | 950.7 |
| 20260506230929 | 44 | 141 | 0.0 | 0.9 | 0.00 | 0.00 | 0.00 | 91 | 950.7 |
| 20260506230430 | 44 | 154 | 0.0 | 0.0 | 0.00 | 0.00 | 0.00 | 92 | 950.6 |
| 20260506225929 | 44 | 155 | 0.0 | 0.9 | 0.00 | 0.00 | 0.00 | 91 | 950.7 |
| 20260506225430 | 44 | 155 | 0.0 | 0.9 | 0.00 | 0.00 | 0.00 | 92 | 950.9 |
| 20260506224929 | 45 | 155 | 0.0 | 0.9 | 0.00 | 0.00 | 0.00 | 91 | 951.0 |
| 20260506224637 | 45 | 155 | 0.0 | 0.9 | 0.00 | 0.00 | 0.00 | 92 | 951.0 |